Regional Weather Roundup
Issued by NWS Albany, NY

Home | Current Version | Previous Version | Text Only | Print | Product List | Glossary On
Versions: 1 2 3 4 5 6 7 8 9 10 11 12 13 14 15 16 17 18 19 20 21 22 23 24 25 26 27 28 29 30 31 32 33 34 35 36 37 38 39 40 41 42 43 44 45 46 47 48 49 50
000
ASUS41 KALY 211110
RWRALY

NEW YORK STATE HOURLY WEATHER ROUNDUP
NATIONAL WEATHER SERVICE ALBANY NY
600 AM EST TUE FEB 21 2017

NOTE: "FAIR" INDICATES FEW OR NO CLOUDS BELOW 12,000 FEET WITH NO
SIGNIFICANT WEATHER AND/OR NO OBSTRUCTIONS TO VISIBILITY.

NYZ032-033-038>043-046>054-057>066-NYZ062>081-082-084-211200-
EAST


CITY           SKY/WX    TMP DP  RH WIND       PRES   REMARKS
ALBANY         CLOUDY    19  13  77 CALM      30.39R
GLENS FALLS    CLOUDY    14   9  80 CALM      30.37S
POUGHKEEPSIE   CLOUDY    20  15  81 CALM      30.39F
NEWBURGH       CLEAR     23  18  80 CALM      30.38F
MONTGOMERY     CLOUDY    21  15  78 CALM      30.37F
WHITE PLAINS   CLOUDY    27  14  58 CALM      30.36F
ISLIP          PTCLDY    26  20  77 CALM      30.39R
NEW YORK CITY  CLOUDY    36  17  46 NE8       30.38F WCI  30
CENTRAL PARK   CLOUDY    35  14  42 NE6       30.40S WCI  30
$$

NYZ005>009-017-018-044>046-055-056-211200-
CENTRAL


CITY           SKY/WX    TMP DP  RH WIND       PRES   REMARKS
FULTON         CLOUDY    29  17  61 SE8       30.23F WCI  21
SYRACUSE       PTCLDY    26  17  68 E10       30.25S WCI  16
ROME           CLOUDY    27  14  58 E13       30.31F WCI  16
ELMIRA         PTCLDY    27  20  75 CALM      30.24F
BINGHAMTON     CLOUDY    25  13  60 S9        30.22F WCI  15
MONTICELLO     CLOUDY    18  14  86 E6        30.31F WCI   9
$$

NYZ026>034-041>043-087-211200-
NORTH


CITY           SKY/WX    TMP DP  RH WIND       PRES   REMARKS
WATERTOWN      CLOUDY    21  17  84 CALM      30.23F
FORT DRUM      NOT AVBL
OGDENSBURG     FAIR      23  20  87 SE3       30.25F
MASSENA        CLOUDY    15  11  83 E3        30.31F
SARANAC LAKE   CLOUDY     6   3  87 CALM      30.22F
PLATTSBURGH    CLOUDY    16  12  84 CALM      30.33F
$$

NYZ001>004-010>016-019>021-085-211200-
WEST


CITY           SKY/WX    TMP DP  RH WIND       PRES   REMARKS
NIAGARA FALLS  CLOUDY    35  21  56 SE3       30.08F
BUFFALO        CLOUDY    38  21  50 SE8       30.08F WCI  32
DUNKIRK        CLOUDY    45  27  49 VRB7      30.06F
JAMESTOWN      CLOUDY    39  19  45 S10       30.08F WCI  32
WELLSVILLE     CLOUDY    34  13  41 SE8       30.15F WCI  27
ROCHESTER      CLOUDY    32  19  58 SE7       30.15F WCI  26
PENN YAN         N/A     33  16  49 S13       30.20S WCI  24
$$

             KEY
       WCI = WIND CHILL INDEX
       VSB = VISIBILITY
       HX  = HEAT INDEX
$$



USA.gov is the U.S. government's official web portal to all federal, state and local government web resources and services.